EIA801R ENBR-EVRA

Flight info

Callsign EIA801R
Flight time 1h 25m
Altitude 35000
Route GOKAB DCT XIDMI DCT RASEL DCT LAPSA
Aircraft A320/M-SDE3FGHIRWY/LB1

Departure

Time 2026-05-04 17:40
Airport Bergen Airport, Flesland (ENBR)

Arrival

Time 2026-05-04 19:06
Airport Riga International Airport (EVRA)
Time Latitude Longitude Altitude Speed Heading
2026-05-04 17:00 60.28863 5.22560 174 ft 0 kts 62°
2026-05-04 17:29 60.28858 5.22539 174 ft 4 kts 69°
2026-05-04 17:29 60.28848 5.22453 174 ft 0 kts 75°
2026-05-04 17:34 60.28764 5.22457 174 ft 8 kts 174°
2026-05-04 17:34 60.28711 5.22470 174 ft 7 kts 182°
2026-05-04 17:35 60.28583 5.22393 174 ft 14 kts 171°
2026-05-04 17:35 60.28388 5.22458 181 ft 13 kts 171°
2026-05-04 17:35 60.28279 5.22494 182 ft 16 kts 171°
2026-05-04 17:36 60.28175 5.22527 181 ft 15 kts 172°
2026-05-04 17:36 60.28083 5.22543 183 ft 10 kts 193°
2026-05-04 17:36 60.28052 5.22442 188 ft 11 kts 259°
2026-05-04 17:36 60.28043 5.22330 194 ft 12 kts 260°
2026-05-04 17:37 60.28059 5.22242 196 ft 7 kts 338°
2026-05-04 17:37 60.28073 5.22238 188 ft 0 kts 350°
2026-05-04 17:40 60.28181 5.22201 183 ft 48 kts 350°
2026-05-04 17:40 60.28753 5.22011 175 ft 116 kts 351°
2026-05-04 17:40 60.29718 5.21687 340 ft 150 kts 348°
2026-05-04 17:40 60.30725 5.21367 1138 ft 147 kts 348°
2026-05-04 17:41 60.31733 5.21037 1935 ft 148 kts 348°
2026-05-04 17:41 60.32812 5.20653 2356 ft 168 kts 348°
2026-05-04 17:41 60.34031 5.20227 2735 ft 187 kts 348°
2026-05-04 17:41 60.35395 5.19754 3099 ft 211 kts 348°
2026-05-04 17:42 60.36927 5.19232 3552 ft 235 kts 348°
2026-05-04 17:42 60.38584 5.18673 4356 ft 245 kts 348°
2026-05-04 17:42 60.40279 5.18102 5294 ft 249 kts 347°
2026-05-04 17:42 60.42004 5.17522 6264 ft 252 kts 347°
2026-05-04 17:43 60.43746 5.16936 7166 ft 256 kts 346°
2026-05-04 17:43 60.45516 5.16344 8087 ft 260 kts 347°
2026-05-04 17:43 60.47355 5.16412 8974 ft 274 kts
2026-05-04 17:43 60.49120 5.18092 9839 ft 292 kts 34°
2026-05-04 17:44 60.50360 5.21499 10556 ft 314 kts 64°
2026-05-04 17:44 60.50745 5.26047 10868 ft 343 kts 88°
2026-05-04 17:44 60.50615 5.31042 11190 ft 365 kts 95°
2026-05-04 17:44 60.50295 5.35946 11754 ft 375 kts 98°
2026-05-04 17:45 60.49875 5.41232 12416 ft 383 kts 99°
2026-05-04 17:45 60.49442 5.46618 13091 ft 391 kts 99°
2026-05-04 17:45 60.49034 5.52120 13745 ft 398 kts 98°
2026-05-04 17:45 60.48660 5.57736 14327 ft 405 kts 97°
2026-05-04 17:46 60.48314 5.63440 14900 ft 412 kts 97°
2026-05-04 17:46 60.47982 5.69249 15424 ft 418 kts 97°
2026-05-04 17:46 60.47648 5.75160 15973 ft 426 kts 97°
2026-05-04 17:46 60.47305 5.81171 16571 ft 432 kts 97°
2026-05-04 17:47 60.46946 5.87249 17134 ft 438 kts 98°
2026-05-04 17:47 60.46568 5.93441 17713 ft 444 kts 98°
2026-05-04 17:47 60.46177 5.99717 18217 ft 452 kts 98°
2026-05-04 17:47 60.45776 6.06065 18725 ft 457 kts 98°
2026-05-04 17:48 60.45366 6.12483 19204 ft 462 kts 98°
2026-05-04 17:48 60.44953 6.18961 19695 ft 466 kts 98°
2026-05-04 17:48 60.44536 6.25516 20195 ft 472 kts 98°
2026-05-04 17:48 60.44112 6.32143 20744 ft 475 kts 98°
2026-05-04 17:49 60.43681 6.38809 21210 ft 479 kts 99°
2026-05-04 17:49 60.43203 6.45509 21670 ft 483 kts 101°
2026-05-04 17:49 60.42606 6.52233 22136 ft 487 kts 103°
2026-05-04 17:49 60.41900 6.58962 22632 ft 491 kts 105°
2026-05-04 17:50 60.41134 6.65614 23040 ft 494 kts 106°
2026-05-04 17:50 60.40325 6.72402 23468 ft 498 kts 106°
2026-05-04 17:50 60.39513 6.79253 23878 ft 503 kts 105°
2026-05-04 17:50 60.38722 6.86165 24276 ft 506 kts 105°
2026-05-04 17:51 60.37950 6.93147 24708 ft 509 kts 104°
2026-05-04 17:51 60.37188 7.00147 25085 ft 512 kts 104°
2026-05-04 17:51 60.36420 7.07185 25441 ft 514 kts 104°
2026-05-04 17:51 60.35640 7.14245 25841 ft 516 kts 104°
2026-05-04 17:52 60.34845 7.21329 26243 ft 518 kts 105°
2026-05-04 17:52 60.34037 7.28446 26620 ft 520 kts 105°
2026-05-04 17:52 60.33220 7.35574 26990 ft 523 kts 105°
2026-05-04 17:52 60.32394 7.42726 27326 ft 524 kts 105°
2026-05-04 17:53 60.31566 7.49881 27799 ft 524 kts 105°
2026-05-04 17:53 60.30732 7.57052 28188 ft 525 kts 105°
2026-05-04 17:53 60.29895 7.64232 28575 ft 527 kts 105°
2026-05-04 17:53 60.29052 7.71443 28940 ft 529 kts 105°
2026-05-04 17:54 60.28204 7.78674 29280 ft 531 kts 105°
2026-05-04 17:54 60.27346 7.85934 29622 ft 533 kts 105°
2026-05-04 17:54 60.26481 7.93208 29932 ft 535 kts 105°
2026-05-04 17:54 60.25605 8.00492 30222 ft 536 kts 105°
2026-05-04 17:55 60.24720 8.07795 30482 ft 536 kts 106°
2026-05-04 17:55 60.23835 8.15076 30874 ft 535 kts 106°
2026-05-04 17:55 60.22949 8.22344 31237 ft 534 kts 106°
2026-05-04 17:55 60.22065 8.29590 31682 ft 531 kts 106°
2026-05-04 17:56 60.21184 8.36771 32107 ft 528 kts 106°
2026-05-04 17:56 60.20304 8.43917 32536 ft 526 kts 106°
2026-05-04 17:56 60.19421 8.51051 32960 ft 523 kts 106°
2026-05-04 17:56 60.18541 8.58140 33382 ft 521 kts 106°
2026-05-04 17:57 60.17661 8.65184 33753 ft 518 kts 106°
2026-05-04 17:57 60.16782 8.72155 34187 ft 514 kts 106°
2026-05-04 17:57 60.15900 8.79114 34481 ft 513 kts 107°
2026-05-04 17:57 60.15018 8.86050 34692 ft 514 kts 107°
2026-05-04 17:58 60.13256 8.99878 34756 ft 509 kts 107°
2026-05-04 17:58 60.11683 9.12135 34747 ft 508 kts 107°
2026-05-04 17:59 60.09897 9.25831 34748 ft 507 kts 107°
2026-05-04 18:00 60.07188 9.46341 34733 ft 509 kts 107°
2026-05-04 18:00 60.05367 9.60056 34727 ft 510 kts 107°
2026-05-04 18:01 60.03530 9.73754 34723 ft 509 kts 107°
2026-05-04 18:01 60.01681 9.87411 34712 ft 509 kts 107°
2026-05-04 18:02 59.98886 10.07888 34706 ft 510 kts 108°
2026-05-04 18:02 59.97105 10.20781 34696 ft 510 kts 108°
2026-05-04 18:03 59.95202 10.34423 34698 ft 511 kts 108°
2026-05-04 18:03 59.93281 10.48087 34701 ft 511 kts 108°
2026-05-04 18:04 59.91348 10.61742 34692 ft 511 kts 108°
2026-05-04 18:05 59.88411 10.82190 34693 ft 512 kts 108°
2026-05-04 18:05 59.86438 10.95827 34696 ft 513 kts 108°
2026-05-04 18:06 59.83452 11.16242 34697 ft 513 kts 108°
2026-05-04 18:06 59.81441 11.29841 34691 ft 512 kts 109°
2026-05-04 18:07 59.79429 11.43403 34712 ft 511 kts 109°
2026-05-04 18:07 59.77403 11.56910 34729 ft 510 kts 109°
2026-05-04 18:08 59.75369 11.70344 34728 ft 509 kts 109°
2026-05-04 18:08 59.73311 11.83761 34724 ft 508 kts 109°
2026-05-04 18:09 59.69130 12.10431 34724 ft 505 kts 110°
2026-05-04 18:10 59.66994 12.23670 34717 ft 505 kts 110°
2026-05-04 18:10 59.64873 12.36814 34709 ft 504 kts 110°
2026-05-04 18:11 59.62727 12.50003 34705 ft 504 kts 111°
2026-05-04 18:11 59.60563 12.63184 34707 ft 504 kts 111°
2026-05-04 18:12 59.58393 12.76333 34711 ft 504 kts 111°
2026-05-04 18:12 59.56207 12.89465 34708 ft 504 kts 111°
2026-05-04 18:13 59.54010 13.02585 34705 ft 504 kts 111°
2026-05-04 18:14 59.50681 13.22218 34717 ft 503 kts 112°
2026-05-04 18:14 59.48462 13.35245 34703 ft 501 kts 112°
2026-05-04 18:15 59.44381 13.58971 34713 ft 499 kts 112°
2026-05-04 18:16 59.42131 13.71881 34705 ft 499 kts 112°
2026-05-04 18:16 59.39869 13.84761 34712 ft 499 kts 112°
2026-05-04 18:17 59.36452 14.04048 34723 ft 499 kts 112°
2026-05-04 18:18 59.33013 14.23333 34729 ft 499 kts 112°
2026-05-04 18:18 59.30704 14.36153 34702 ft 499 kts 112°
2026-05-04 18:19 59.27214 14.55350 34721 ft 499 kts 112°
2026-05-04 18:19 59.24867 14.68137 34731 ft 499 kts 113°
2026-05-04 18:20 59.22525 14.80796 34726 ft 499 kts 113°
2026-05-04 18:20 59.20166 14.93538 34727 ft 499 kts 113°
2026-05-04 18:21 59.17791 15.06264 34752 ft 499 kts 113°
2026-05-04 18:21 59.15400 15.18969 34754 ft 499 kts 113°
2026-05-04 18:22 59.12992 15.31656 34756 ft 499 kts 114°
2026-05-04 18:22 59.10577 15.44328 34755 ft 499 kts 114°
2026-05-04 18:23 59.08149 15.56998 34738 ft 499 kts 114°
2026-05-04 18:23 59.05715 15.69619 34738 ft 498 kts 114°
2026-05-04 18:24 59.03263 15.82204 34745 ft 498 kts 114°
2026-05-04 18:24 59.00799 15.94755 34741 ft 498 kts 114°
2026-05-04 18:25 58.98326 16.07307 34736 ft 498 kts 114°
2026-05-04 18:25 58.95849 16.19824 34728 ft 497 kts 114°
2026-05-04 18:26 58.93355 16.32317 34738 ft 497 kts 114°
2026-05-04 18:26 58.90868 16.44709 34742 ft 497 kts 114°
2026-05-04 18:27 58.88358 16.57180 34746 ft 497 kts 114°
2026-05-04 18:27 58.85833 16.69604 34732 ft 497 kts 114°
2026-05-04 18:28 58.83286 16.82032 34741 ft 497 kts 115°
2026-05-04 18:28 58.80729 16.94432 34749 ft 497 kts 115°
2026-05-04 18:29 58.78170 17.06805 34752 ft 497 kts 115°
2026-05-04 18:29 58.75599 17.19176 34757 ft 497 kts 115°
2026-05-04 18:30 58.71705 17.37715 34751 ft 497 kts 115°
2026-05-04 18:31 58.69103 17.50038 34727 ft 497 kts 115°
2026-05-04 18:31 58.66490 17.62318 34764 ft 496 kts 115°
2026-05-04 18:32 58.63872 17.74559 34767 ft 495 kts 115°
2026-05-04 18:32 58.61246 17.86778 34763 ft 495 kts 115°
2026-05-04 18:33 58.58610 17.98958 34771 ft 494 kts 115°
2026-05-04 18:33 58.55972 18.11032 34772 ft 493 kts 115°
2026-05-04 18:34 58.53318 18.23134 34769 ft 493 kts 115°
2026-05-04 18:34 58.50661 18.35227 34775 ft 492 kts 115°
2026-05-04 18:35 58.47992 18.47287 34773 ft 492 kts 115°
2026-05-04 18:35 58.45313 18.59301 34768 ft 492 kts 115°
2026-05-04 18:36 58.42622 18.71302 34766 ft 492 kts 116°
2026-05-04 18:36 58.39923 18.83284 34767 ft 492 kts 116°
2026-05-04 18:37 58.37209 18.95250 34761 ft 492 kts 116°
2026-05-04 18:37 58.34479 19.07200 34761 ft 491 kts 116°
2026-05-04 18:38 58.31740 19.19136 34769 ft 492 kts 116°
2026-05-04 18:38 58.28996 19.31049 34768 ft 491 kts 116°
2026-05-04 18:39 58.26243 19.42946 34772 ft 492 kts 116°
2026-05-04 18:39 58.23482 19.54811 34756 ft 491 kts 116°
2026-05-04 18:40 58.20704 19.66659 34775 ft 491 kts 116°
2026-05-04 18:40 58.17919 19.78474 34789 ft 491 kts 116°
2026-05-04 18:41 58.15120 19.90261 34799 ft 490 kts 116°
2026-05-04 18:41 58.12318 20.02029 34791 ft 490 kts 116°
2026-05-04 18:42 58.09508 20.13770 34793 ft 489 kts 117°
2026-05-04 18:42 58.06683 20.25476 34799 ft 489 kts 117°
2026-05-04 18:43 58.03846 20.37138 34802 ft 488 kts 117°
2026-05-04 18:43 58.00863 20.48624 34798 ft 486 kts 121°
2026-05-04 18:44 57.97535 20.59694 34780 ft 485 kts 123°
2026-05-04 18:44 57.94268 20.70783 34790 ft 486 kts 116°
2026-05-04 18:45 57.91579 20.82457 34794 ft 486 kts 116°
2026-05-04 18:45 57.88890 20.94144 34802 ft 486 kts 116°
2026-05-04 18:46 57.86198 21.05788 34797 ft 486 kts 116°
2026-05-04 18:46 57.83485 21.17412 34795 ft 486 kts 116°
2026-05-04 18:47 57.80763 21.29015 34491 ft 486 kts 116°
2026-05-04 18:47 57.79387 21.34853 33436 ft 494 kts 116°
2026-05-04 18:47 57.77994 21.40743 32755 ft 491 kts 116°
2026-05-04 18:47 57.76612 21.46566 32106 ft 488 kts 116°
2026-05-04 18:48 57.75231 21.52367 31393 ft 486 kts 116°
2026-05-04 18:48 57.73855 21.58138 30684 ft 484 kts 116°
2026-05-04 18:48 57.72483 21.63889 29962 ft 483 kts 116°
2026-05-04 18:48 57.71114 21.69617 29122 ft 481 kts 117°
2026-05-04 18:49 57.69749 21.75316 28481 ft 477 kts 117°
2026-05-04 18:49 57.68395 21.80955 27765 ft 474 kts 117°
2026-05-04 18:49 57.67043 21.86566 27072 ft 471 kts 117°
2026-05-04 18:49 57.65715 21.92053 26393 ft 468 kts 117°
2026-05-04 18:50 57.64356 21.97657 25696 ft 466 kts 118°
2026-05-04 18:50 57.63040 22.03074 25030 ft 463 kts 118°
2026-05-04 18:50 57.61709 22.08528 24361 ft 460 kts 118°
2026-05-04 18:50 57.60384 22.13945 23716 ft 458 kts 118°
2026-05-04 18:51 57.59064 22.19332 23032 ft 455 kts 118°
2026-05-04 18:51 57.57755 22.24674 22423 ft 449 kts 118°
2026-05-04 18:51 57.56462 22.29936 21876 ft 443 kts 118°
2026-05-04 18:51 57.55182 22.35124 21322 ft 438 kts 119°
2026-05-04 18:52 57.53914 22.40251 20799 ft 433 kts 119°
2026-05-04 18:52 57.52657 22.45311 20270 ft 429 kts 119°
2026-05-04 18:52 57.51408 22.50336 19733 ft 426 kts 119°
2026-05-04 18:52 57.50173 22.55306 19196 ft 423 kts 119°
2026-05-04 18:53 57.48939 22.60250 18641 ft 421 kts 119°
2026-05-04 18:53 57.47702 22.65173 18084 ft 419 kts 119°
2026-05-04 18:53 57.46470 22.70078 17474 ft 418 kts 119°
2026-05-04 18:53 57.45248 22.74948 16883 ft 415 kts 119°
2026-05-04 18:54 57.44027 22.79794 16333 ft 412 kts 119°
2026-05-04 18:54 57.42816 22.84588 15766 ft 410 kts 119°
2026-05-04 18:54 57.41604 22.89381 15204 ft 409 kts 119°
2026-05-04 18:54 57.40805 22.92537 14844 ft 407 kts 119°
2026-05-04 18:55 57.39589 22.97335 14300 ft 405 kts 119°
2026-05-04 18:55 57.37217 23.06680 13256 ft 399 kts 119°
2026-05-04 18:55 57.36037 23.11301 12776 ft 394 kts 119°
2026-05-04 18:56 57.34857 23.15903 12340 ft 388 kts 119°
2026-05-04 18:56 57.33706 23.20385 11891 ft 382 kts 118°
2026-05-04 18:56 57.32588 23.24729 11463 ft 376 kts 118°
2026-05-04 18:56 57.31467 23.29077 11025 ft 371 kts 119°
2026-05-04 18:57 57.30365 23.33347 10606 ft 366 kts 119°
2026-05-04 18:57 57.29271 23.37579 10191 ft 362 kts 118°
2026-05-04 18:57 57.28190 23.41757 9772 ft 358 kts 118°
2026-05-04 18:57 57.27118 23.45886 9337 ft 354 kts 118°
2026-05-04 18:58 57.26054 23.49972 8891 ft 351 kts 118°
2026-05-04 18:58 57.25002 23.54004 8450 ft 347 kts 118°
2026-05-04 18:58 57.23958 23.57996 8015 ft 343 kts 118°
2026-05-04 18:58 57.22924 23.61943 7581 ft 340 kts 118°
2026-05-04 18:59 57.21901 23.65846 7154 ft 336 kts 118°
2026-05-04 18:59 57.20885 23.69716 6735 ft 333 kts 117°
2026-05-04 18:59 57.19886 23.73530 6321 ft 329 kts 117°
2026-05-04 18:59 57.18891 23.77316 5889 ft 325 kts 117°
2026-05-04 19:00 57.17909 23.81044 5449 ft 322 kts 118°
2026-05-04 19:00 57.16933 23.84738 5017 ft 318 kts 118°
2026-05-04 19:00 57.15988 23.88313 4590 ft 303 kts 118°
2026-05-04 19:00 57.15086 23.91721 4154 ft 289 kts 118°
2026-05-04 19:01 57.14240 23.94923 3981 ft 266 kts 119°
2026-05-04 19:01 57.13225 23.97568 3807 ft 242 kts 141°
2026-05-04 19:01 57.11902 23.99243 3613 ft 222 kts 162°
2026-05-04 19:01 57.10472 23.99971 3407 ft 208 kts 181°
2026-05-04 19:02 57.09081 23.99898 3154 ft 195 kts 192°
2026-05-04 19:02 57.07752 23.99676 2884 ft 189 kts 192°
2026-05-04 19:02 57.06455 23.99459 2624 ft 185 kts 192°
2026-05-04 19:02 57.05180 23.99245 2388 ft 183 kts 192°
2026-05-04 19:03 57.03914 23.99034 2133 ft 182 kts 192°
2026-05-04 19:03 57.02674 23.98829 1893 ft 173 kts 192°
2026-05-04 19:03 57.01510 23.98639 1662 ft 163 kts 192°
2026-05-04 19:03 57.00391 23.98452 1441 ft 159 kts 191°
2026-05-04 19:04 56.99350 23.98281 1227 ft 142 kts 191°
2026-05-04 19:04 56.98387 23.98121 1029 ft 137 kts 191°
2026-05-04 19:04 56.97449 23.97964 854 ft 134 kts 189°
2026-05-04 19:04 56.96530 23.97811 676 ft 131 kts 189°
2026-05-04 19:05 56.95626 23.97658 497 ft 129 kts 189°
2026-05-04 19:05 56.94731 23.97517 325 ft 129 kts 188°
2026-05-04 19:05 56.93841 23.97369 174 ft 129 kts 187°
2026-05-04 19:05 56.92963 23.97219 46 ft 118 kts 186°
2026-05-04 19:06 56.92306 23.97100 45 ft 67 kts 185°
2026-05-04 19:06 56.92029 23.97059 43 ft 28 kts 184°
2026-05-04 19:06 56.91850 23.97110 44 ft 25 kts 162°
2026-05-04 19:06 56.91722 23.97237 44 ft 12 kts 120°
2026-05-04 19:07 56.91709 23.97382 44 ft 11 kts 95°
2026-05-04 19:07 56.91703 23.97516 44 ft 10 kts 95°
2026-05-04 19:07 56.91697 23.97635 44 ft 9 kts 95°
2026-05-04 19:07 56.91724 23.97702 44 ft 7 kts 14°
2026-05-04 19:08 56.91768 23.97712 44 ft 6 kts
2026-05-04 19:08 56.91809 23.97719 44 ft 6 kts
2026-05-04 19:08 56.91851 23.97726 44 ft 6 kts
2026-05-04 19:08 56.91890 23.97733 44 ft 5 kts
2026-05-04 19:09 56.91907 23.97704 44 ft 3 kts 287°
2026-05-04 19:09 56.91909 23.97671 44 ft 2 kts 276°
2026-05-04 19:09 56.91910 23.97649 44 ft 1 kts 275°
2026-05-04 19:09 56.91911 23.97634 44 ft 1 kts 275°
2026-05-04 19:10 56.91911 23.97631 44 ft 0 kts 275°